This is the latest recevied weather packets stored in our database for station/object DL3MEB-6. If no packets are shown the sender has not sent any weather packets the latest 1 day(s).
| Time | Temp. | Humidity | Pressure | Rain* | Wind** | Luminosity | Snow |
|---|---|---|---|---|---|---|---|
| 1778048254 | 11.67° C | 94% | 1006.2 hPa | 0 mm | - | - | - |
| 1778047351 | 11.11° C | 94% | 1006.3 hPa | 0 mm | - | - | - |
| 1778045543 | 10.56° C | 94% | 1006.4 hPa | 0 mm | - | - | - |
| 1778043728 | 10° C | 93% | 1006.4 hPa | 0 mm | - | - | - |
| 1778042823 | 9.44° C | 92% | 1006.5 hPa | 0 mm | - | - | - |
| 1778041922 | 9.44° C | 92% | 1006.7 hPa | 0 mm | - | - | - |
| 1778041022 | 9.44° C | 92% | 1006.8 hPa | 0 mm | - | - | - |
| 1778040116 | 9.44° C | 91% | 1006.8 hPa | 0 mm | - | - | - |
| 1778039209 | 9.44° C | 91% | 1006.8 hPa | 0 mm | - | - | - |
| 1778038302 | 10° C | 91% | 1006.9 hPa | 0 mm | - | - | - |
| 1778037395 | 10° C | 91% | 1007 hPa | 0 mm | - | - | - |
| 1778036496 | 10° C | 91% | 1007 hPa | 0 mm | - | - | - |
| 1778035586 | 10° C | 90% | 1007 hPa | 0 mm | - | - | - |
| 1778034678 | 10.56° C | 90% | 1006.8 hPa | 0 mm | - | - | - |
| 1778033771 | 10.56° C | 89% | 1006.6 hPa | 0 mm | - | - | - |
| 1778031951 | 11.11° C | 88% | 1006.7 hPa | 0 mm | - | - | - |
| 1778030149 | 11.67° C | 88% | 1006.7 hPa | 0 mm | - | - | - |
| 1778029243 | 11.67° C | 88% | 1006.5 hPa | 0 mm | - | - | - |
| 1778028334 | 11.67° C | 87% | 1006.7 hPa | 0 mm | - | - | - |
| 1778027423 | 12.22° C | 86% | 1006.8 hPa | 0 mm | - | - | - |
| 1778022890 | 13.33° C | 81% | 1007 hPa | 0 mm | - | - | - |
| 1778021981 | 13.89° C | 83% | 1007.2 hPa | 0 mm | - | - | - |
| 1778019262 | 14.44° C | 83% | 1007 hPa | 0 mm | - | - | - |
| 1778015648 | 15° C | 72% | 1007.3 hPa | 0 mm | - | - | - |
| 1778007472 | 16.11° C | 65% | 1005.3 hPa | 0 mm | - | - | - |
* Rain latest hour (hover to see other rain measurements)
** Current wind speed in m/s (hover to see current wind gust speed)